Year,Month,Day,Hour,Minute,Value (Times are PST for windspeed in km/hr)
2020,07,12,00,00,0.00
2020,07,12,00,01,0.00
2020,07,12,00,02,0.00
2020,07,12,00,03,0.00
2020,07,12,00,04,0.00
2020,07,12,00,05,0.00
2020,07,12,00,06,0.00
2020,07,12,00,07,0.00
2020,07,12,00,08,0.00
2020,07,12,00,09,0.00
2020,07,12,00,10,0.00
2020,07,12,00,11,0.30
2020,07,12,00,12,0.10
2020,07,12,00,13,0.20
2020,07,12,00,14,0.00
2020,07,12,00,15,0.20
2020,07,12,00,16,0.00
2020,07,12,00,17,0.00
2020,07,12,00,18,0.00
2020,07,12,00,19,0.00
2020,07,12,00,20,0.00
2020,07,12,00,21,0.00
2020,07,12,00,22,0.00
2020,07,12,00,23,0.50
2020,07,12,00,24,1.10
2020,07,12,00,25,0.00
2020,07,12,00,26,0.00
2020,07,12,00,27,0.00
2020,07,12,00,28,0.00
2020,07,12,00,29,0.00
2020,07,12,00,30,0.00
2020,07,12,00,31,0.00
2020,07,12,00,32,0.00
2020,07,12,00,33,0.00
2020,07,12,00,34,0.00
2020,07,12,00,35,0.00
2020,07,12,00,36,0.30
2020,07,12,00,37,0.80
2020,07,12,00,38,0.00
2020,07,12,00,39,0.70
2020,07,12,00,40,0.00
2020,07,12,00,41,0.80
2020,07,12,00,42,2.80
2020,07,12,00,43,0.30
2020,07,12,00,44,3.00
2020,07,12,00,45,2.90
2020,07,12,00,46,0.60
2020,07,12,00,47,2.80
2020,07,12,00,48,3.30
2020,07,12,00,49,1.00
2020,07,12,00,50,1.20
2020,07,12,00,51,2.70
2020,07,12,00,52,1.20
2020,07,12,00,53,0.90
2020,07,12,00,54,3.20
2020,07,12,00,55,0.50
2020,07,12,00,56,1.40
2020,07,12,00,57,6.10
2020,07,12,00,58,4.20
2020,07,12,00,59,3.20
2020,07,12,01,00,2.10
2020,07,12,01,01,1.60
2020,07,12,01,02,0.80
2020,07,12,01,03,1.50
2020,07,12,01,04,1.80
2020,07,12,01,05,0.00
2020,07,12,01,06,1.30
2020,07,12,01,07,1.70
2020,07,12,01,08,0.00
2020,07,12,01,09,2.20
2020,07,12,01,10,2.90
2020,07,12,01,11,4.40
2020,07,12,01,12,1.90
2020,07,12,01,13,4.30
2020,07,12,01,14,3.50
2020,07,12,01,15,4.80
2020,07,12,01,16,4.90
2020,07,12,01,17,5.90
2020,07,12,01,18,9.60
2020,07,12,01,19,7.10
2020,07,12,01,20,7.10
2020,07,12,01,21,2.20
2020,07,12,01,22,3.10
2020,07,12,01,23,3.00
2020,07,12,01,24,1.90
2020,07,12,01,25,3.90
2020,07,12,01,26,3.80
2020,07,12,01,27,0.10
2020,07,12,01,28,0.40
2020,07,12,01,29,0.00
2020,07,12,01,30,0.00
2020,07,12,01,31,4.80
2020,07,12,01,32,1.90
2020,07,12,01,33,0.10
2020,07,12,01,34,0.70
2020,07,12,01,35,0.00
2020,07,12,01,36,2.50
2020,07,12,01,37,1.10
2020,07,12,01,38,0.60
2020,07,12,01,39,0.00
2020,07,12,01,40,2.40
2020,07,12,01,41,1.40
2020,07,12,01,42,0.00
2020,07,12,01,43,0.00
2020,07,12,01,44,0.20
2020,07,12,01,45,1.80
2020,07,12,01,46,3.30
2020,07,12,01,47,0.40
2020,07,12,01,48,0.20
2020,07,12,01,49,0.50
2020,07,12,01,50,3.00
2020,07,12,01,51,1.60
2020,07,12,01,52,0.00
2020,07,12,01,53,0.00
2020,07,12,01,54,1.90
2020,07,12,01,55,6.70
2020,07,12,01,56,4.40
2020,07,12,01,57,6.40
2020,07,12,01,58,4.20
2020,07,12,01,59,7.60
2020,07,12,02,00,5.60
2020,07,12,02,01,2.80
2020,07,12,02,02,4.60
2020,07,12,02,03,6.50
2020,07,12,02,04,5.90
2020,07,12,02,05,4.10
2020,07,12,02,06,5.90
2020,07,12,02,07,7.00
2020,07,12,02,08,3.80
2020,07,12,02,09,5.50
2020,07,12,02,10,2.90
2020,07,12,02,11,0.30
2020,07,12,02,12,0.20
2020,07,12,02,13,0.00
2020,07,12,02,14,0.00
2020,07,12,02,15,0.80
2020,07,12,02,16,2.20
2020,07,12,02,17,1.00
2020,07,12,02,18,3.70
2020,07,12,02,19,3.60
2020,07,12,02,20,4.70
2020,07,12,02,21,3.60
2020,07,12,02,22,2.70
2020,07,12,02,23,0.90
2020,07,12,02,24,6.90
2020,07,12,02,25,3.00
2020,07,12,02,26,1.80
2020,07,12,02,27,5.60
2020,07,12,02,28,2.70
2020,07,12,02,29,0.00
2020,07,12,02,30,0.00
2020,07,12,02,31,0.40
2020,07,12,02,32,2.50
2020,07,12,02,33,1.40
2020,07,12,02,34,0.00
2020,07,12,02,35,2.60
2020,07,12,02,36,2.80
2020,07,12,02,37,7.60
2020,07,12,02,38,0.50
2020,07,12,02,39,3.50
2020,07,12,02,40,1.10
2020,07,12,02,41,2.60
2020,07,12,02,42,0.80
2020,07,12,02,43,2.50
2020,07,12,02,44,5.80
2020,07,12,02,45,4.20
2020,07,12,02,46,4.00
2020,07,12,02,47,9.00
2020,07,12,02,48,5.00
2020,07,12,02,49,1.60
2020,07,12,02,50,4.70
2020,07,12,02,51,3.10
2020,07,12,02,52,5.50
2020,07,12,02,53,4.00
2020,07,12,02,54,2.30
2020,07,12,02,55,3.50
2020,07,12,02,56,3.00
2020,07,12,02,57,1.90
2020,07,12,02,58,2.90
2020,07,12,02,59,1.90
2020,07,12,03,00,2.40
2020,07,12,03,01,6.60
2020,07,12,03,02,8.60
2020,07,12,03,03,8.60
2020,07,12,03,04,7.20
2020,07,12,03,05,5.30
2020,07,12,03,06,6.90
2020,07,12,03,07,5.30
2020,07,12,03,08,8.60
2020,07,12,03,09,6.80
2020,07,12,03,10,3.00
2020,07,12,03,11,4.40
2020,07,12,03,12,7.70
2020,07,12,03,13,4.20
2020,07,12,03,14,3.00
2020,07,12,03,15,3.90
2020,07,12,03,16,6.00
2020,07,12,03,17,5.90
2020,07,12,03,18,4.60
2020,07,12,03,19,6.20
2020,07,12,03,20,4.80
2020,07,12,03,21,4.20
2020,07,12,03,22,6.60
2020,07,12,03,23,11.20
2020,07,12,03,24,7.60
2020,07,12,03,25,6.40
2020,07,12,03,26,5.30
2020,07,12,03,27,6.40
2020,07,12,03,28,2.40
2020,07,12,03,29,4.50
2020,07,12,03,30,4.80
2020,07,12,03,31,4.50
2020,07,12,03,32,5.30
2020,07,12,03,33,3.10
2020,07,12,03,34,5.50
2020,07,12,03,35,4.50
2020,07,12,03,36,5.70
2020,07,12,03,37,4.50
2020,07,12,03,38,4.70
2020,07,12,03,39,1.30
2020,07,12,03,40,2.60
2020,07,12,03,41,9.00
2020,07,12,03,42,6.40
2020,07,12,03,43,4.80
2020,07,12,03,44,0.50
2020,07,12,03,45,5.30
2020,07,12,03,46,5.60
2020,07,12,03,47,4.00
2020,07,12,03,48,3.10
2020,07,12,03,49,3.60
2020,07,12,03,50,6.10
2020,07,12,03,51,3.90
2020,07,12,03,52,2.50
2020,07,12,03,53,3.10
2020,07,12,03,54,3.80
2020,07,12,03,55,1.60
2020,07,12,03,56,1.00
2020,07,12,03,57,2.40
2020,07,12,03,58,6.70
2020,07,12,03,59,3.60
2020,07,12,04,00,6.30
2020,07,12,04,01,3.00
2020,07,12,04,02,6.50
2020,07,12,04,03,3.60
2020,07,12,04,04,3.70
2020,07,12,04,05,6.50
2020,07,12,04,06,4.80
2020,07,12,04,07,6.70
2020,07,12,04,08,6.00
2020,07,12,04,09,3.10
2020,07,12,04,10,2.50
2020,07,12,04,11,6.40
2020,07,12,04,12,5.80
2020,07,12,04,13,3.80
2020,07,12,04,14,3.60
2020,07,12,04,15,3.30
2020,07,12,04,16,5.50
2020,07,12,04,17,4.90
2020,07,12,04,18,5.10
2020,07,12,04,19,9.70
2020,07,12,04,20,6.10
2020,07,12,04,21,4.40
2020,07,12,04,22,9.10
2020,07,12,04,23,5.30
2020,07,12,04,24,7.80
2020,07,12,04,25,6.40
2020,07,12,04,26,8.10
2020,07,12,04,27,3.70
2020,07,12,04,28,4.30
2020,07,12,04,29,5.70
2020,07,12,04,30,7.70
2020,07,12,04,31,5.90
2020,07,12,04,32,5.10
2020,07,12,04,33,3.00
2020,07,12,04,34,5.30
2020,07,12,04,35,2.80
2020,07,12,04,36,5.20
2020,07,12,04,37,5.10
2020,07,12,04,38,8.20
2020,07,12,04,39,6.90
2020,07,12,04,40,7.50
2020,07,12,04,41,6.80
2020,07,12,04,42,6.00
2020,07,12,04,43,6.70
2020,07,12,04,44,6.30
2020,07,12,04,45,10.50
2020,07,12,04,46,7.50
2020,07,12,04,47,3.90
2020,07,12,04,48,6.80
2020,07,12,04,49,9.70
2020,07,12,04,50,5.20
2020,07,12,04,51,4.50
2020,07,12,04,52,5.80
2020,07,12,04,53,2.40
2020,07,12,04,54,7.10
2020,07,12,04,55,8.50
2020,07,12,04,56,6.90
2020,07,12,04,57,10.80
2020,07,12,04,58,6.60
2020,07,12,04,59,3.90
2020,07,12,05,00,2.50
2020,07,12,05,01,3.60
2020,07,12,05,02,7.90
2020,07,12,05,03,5.80
2020,07,12,05,04,6.20
2020,07,12,05,05,7.80
2020,07,12,05,06,5.60
2020,07,12,05,07,5.00
2020,07,12,05,08,8.10
2020,07,12,05,09,10.30
2020,07,12,05,10,5.10
2020,07,12,05,11,6.40
2020,07,12,05,12,5.30
2020,07,12,05,13,6.80
2020,07,12,05,14,6.10
2020,07,12,05,15,6.70
2020,07,12,05,16,7.30
2020,07,12,05,17,5.90
2020,07,12,05,18,3.30
2020,07,12,05,19,7.70
2020,07,12,05,20,11.10
2020,07,12,05,21,8.60
2020,07,12,05,22,5.30
2020,07,12,05,23,5.80
2020,07,12,05,24,8.60
2020,07,12,05,25,6.20
2020,07,12,05,26,5.60
2020,07,12,05,27,5.80
2020,07,12,05,28,6.20
2020,07,12,05,29,7.00
2020,07,12,05,30,8.50
2020,07,12,05,31,6.30
2020,07,12,05,32,5.70
2020,07,12,05,33,5.20
2020,07,12,05,34,3.10
2020,07,12,05,35,5.30
2020,07,12,05,36,4.00
2020,07,12,05,37,3.30
2020,07,12,05,38,5.80
2020,07,12,05,39,2.80
2020,07,12,05,40,7.20
2020,07,12,05,41,4.50
2020,07,12,05,42,4.90
2020,07,12,05,43,2.50
2020,07,12,05,44,2.90
2020,07,12,05,45,5.30
2020,07,12,05,46,2.30
2020,07,12,05,47,4.90
2020,07,12,05,48,5.40
2020,07,12,05,49,4.30
2020,07,12,05,50,6.10
2020,07,12,05,51,1.30
2020,07,12,05,52,1.00
2020,07,12,05,53,8.30
2020,07,12,05,54,5.00
2020,07,12,05,55,3.20
2020,07,12,05,56,4.30
2020,07,12,05,57,5.30
2020,07,12,05,58,0.80
2020,07,12,05,59,0.00
2020,07,12,06,00,4.70
2020,07,12,06,01,4.40
2020,07,12,06,02,2.50
2020,07,12,06,03,2.90
2020,07,12,06,04,2.60
2020,07,12,06,05,5.70
2020,07,12,06,06,2.30
2020,07,12,06,07,5.00
2020,07,12,06,08,4.20
2020,07,12,06,09,6.40
2020,07,12,06,10,1.60
2020,07,12,06,11,0.00
2020,07,12,06,12,3.60
2020,07,12,06,13,2.40
2020,07,12,06,14,5.20
2020,07,12,06,15,5.20
2020,07,12,06,16,6.40
2020,07,12,06,17,7.90
2020,07,12,06,18,4.90
2020,07,12,06,19,3.70
2020,07,12,06,20,6.10
2020,07,12,06,21,7.70
2020,07,12,06,22,6.90
2020,07,12,06,23,1.00
2020,07,12,06,24,7.80
2020,07,12,06,25,8.00
2020,07,12,06,26,5.50
2020,07,12,06,27,3.10
2020,07,12,06,28,6.70
2020,07,12,06,29,2.00
2020,07,12,06,30,8.10
2020,07,12,06,31,8.30
2020,07,12,06,32,7.40
2020,07,12,06,33,1.90
2020,07,12,06,34,9.10
2020,07,12,06,35,7.00
2020,07,12,06,36,8.00
2020,07,12,06,37,7.90
2020,07,12,06,38,5.40
2020,07,12,06,39,3.50
2020,07,12,06,40,9.10
2020,07,12,06,41,6.50
2020,07,12,06,42,5.70
2020,07,12,06,43,7.50
2020,07,12,06,44,7.20
2020,07,12,06,45,6.40
2020,07,12,06,46,8.00
2020,07,12,06,47,6.60
2020,07,12,06,48,6.50
2020,07,12,06,49,8.40
2020,07,12,06,50,7.40
2020,07,12,06,51,10.10
2020,07,12,06,52,7.80
2020,07,12,06,53,4.30
2020,07,12,06,54,14.90
2020,07,12,06,55,13.50
2020,07,12,06,56,6.80
2020,07,12,06,57,5.80
2020,07,12,06,58,8.60
2020,07,12,06,59,8.30
2020,07,12,07,00,10.70
2020,07,12,07,01,5.10
2020,07,12,07,02,5.60
2020,07,12,07,03,5.60
2020,07,12,07,04,6.60
2020,07,12,07,05,2.10
2020,07,12,07,06,2.50
2020,07,12,07,07,9.80
2020,07,12,07,08,7.00
2020,07,12,07,09,10.20
2020,07,12,07,10,6.20
2020,07,12,07,11,6.40
2020,07,12,07,12,5.30
2020,07,12,07,13,12.10
2020,07,12,07,14,10.60
2020,07,12,07,15,8.40
2020,07,12,07,16,7.60
2020,07,12,07,17,1.80
2020,07,12,07,18,2.40
2020,07,12,07,19,7.40
2020,07,12,07,20,8.10
2020,07,12,07,21,5.30
2020,07,12,07,22,2.70
2020,07,12,07,23,6.20
2020,07,12,07,24,8.60
2020,07,12,07,25,9.60
2020,07,12,07,26,7.10
2020,07,12,07,27,6.40
2020,07,12,07,28,10.50
2020,07,12,07,29,7.00
2020,07,12,07,30,12.40
2020,07,12,07,31,4.10
2020,07,12,07,32,5.20
2020,07,12,07,33,5.50
2020,07,12,07,34,5.60
2020,07,12,07,35,13.60
2020,07,12,07,36,8.10
2020,07,12,07,37,7.50
2020,07,12,07,38,4.70
2020,07,12,07,39,6.40
2020,07,12,07,40,11.30
2020,07,12,07,41,12.00
2020,07,12,07,42,7.30
2020,07,12,07,43,9.00
2020,07,12,07,44,8.10
2020,07,12,07,45,10.50
2020,07,12,07,46,12.30
2020,07,12,07,47,7.80
2020,07,12,07,48,3.40
2020,07,12,07,49,3.90
2020,07,12,07,50,13.60
2020,07,12,07,51,16.20
2020,07,12,07,52,8.50
2020,07,12,07,53,9.20
2020,07,12,07,54,7.10
2020,07,12,07,55,8.60
2020,07,12,07,56,5.20
2020,07,12,07,57,9.70
2020,07,12,07,58,7.00
2020,07,12,07,59,9.10
2020,07,12,08,00,12.00
2020,07,12,08,01,8.70
2020,07,12,08,02,10.50
2020,07,12,08,03,8.20
2020,07,12,08,04,13.70
2020,07,12,08,05,9.20
2020,07,12,08,06,6.30
2020,07,12,08,07,9.10
2020,07,12,08,08,6.60
2020,07,12,08,09,6.90
2020,07,12,08,10,8.60
2020,07,12,08,11,7.50
2020,07,12,08,12,12.20
2020,07,12,08,13,6.60
2020,07,12,08,14,4.60
2020,07,12,08,15,7.90
2020,07,12,08,16,9.40
2020,07,12,08,17,9.10
2020,07,12,08,18,7.60
2020,07,12,08,19,9.40
2020,07,12,08,20,8.10
2020,07,12,08,21,8.90
2020,07,12,08,22,5.30
2020,07,12,08,23,8.60
2020,07,12,08,24,9.10
2020,07,12,08,25,12.30
2020,07,12,08,26,2.90
2020,07,12,08,27,7.20
2020,07,12,08,28,7.00
2020,07,12,08,29,5.80
2020,07,12,08,30,9.40
2020,07,12,08,31,4.10
2020,07,12,08,32,9.10
2020,07,12,08,33,5.30
2020,07,12,08,34,5.90
2020,07,12,08,35,3.70
2020,07,12,08,36,5.00
2020,07,12,08,37,11.90
2020,07,12,08,38,13.40
2020,07,12,08,39,14.10
2020,07,12,08,40,4.70
2020,07,12,08,41,6.40
2020,07,12,08,42,6.00
2020,07,12,08,43,12.00
2020,07,12,08,44,7.30
2020,07,12,08,45,7.80
2020,07,12,08,46,9.10
2020,07,12,08,47,10.50
2020,07,12,08,48,5.80
2020,07,12,08,49,9.30
2020,07,12,08,50,6.40
2020,07,12,08,51,7.60
2020,07,12,08,52,10.50
2020,07,12,08,53,12.70
2020,07,12,08,54,13.00
2020,07,12,08,55,11.60
2020,07,12,08,56,9.70
2020,07,12,08,57,7.00
2020,07,12,08,58,9.20
2020,07,12,08,59,17.90
2020,07,12,09,00,16.10
2020,07,12,09,01,13.90
2020,07,12,09,02,13.50
2020,07,12,09,03,11.90
2020,07,12,09,04,14.60
2020,07,12,09,05,15.70
2020,07,12,09,06,15.80
2020,07,12,09,07,15.80
2020,07,12,09,08,15.90
2020,07,12,09,09,11.80
2020,07,12,09,10,17.00
2020,07,12,09,11,14.40
2020,07,12,09,12,12.80
2020,07,12,09,13,14.70
2020,07,12,09,14,19.40
2020,07,12,09,15,15.80
2020,07,12,09,16,12.50
2020,07,12,09,17,12.70
2020,07,12,09,18,10.10
2020,07,12,09,19,15.40
2020,07,12,09,20,14.80
2020,07,12,09,21,19.80
2020,07,12,09,22,15.70
2020,07,12,09,23,17.60
2020,07,12,09,24,15.00
2020,07,12,09,25,13.80
2020,07,12,09,26,10.50
2020,07,12,09,27,15.70
2020,07,12,09,28,14.30
2020,07,12,09,29,12.30
2020,07,12,09,30,7.00
2020,07,12,09,31,17.20
2020,07,12,09,32,10.60
2020,07,12,09,33,8.60
2020,07,12,09,34,6.50
2020,07,12,09,35,14.80
2020,07,12,09,36,6.90
2020,07,12,09,37,11.90
2020,07,12,09,38,11.40
2020,07,12,09,39,14.10
2020,07,12,09,40,12.30
2020,07,12,09,41,20.10
2020,07,12,09,42,14.70
2020,07,12,09,43,4.80
2020,07,12,09,44,9.70
2020,07,12,09,45,16.80
2020,07,12,09,46,8.90
2020,07,12,09,47,12.70
2020,07,12,09,48,20.20
2020,07,12,09,49,9.70
2020,07,12,09,50,10.10
2020,07,12,09,51,8.70
2020,07,12,09,52,8.30
2020,07,12,09,53,10.20
2020,07,12,09,54,12.70
2020,07,12,09,55,13.20
2020,07,12,09,56,18.30
2020,07,12,09,57,6.50
2020,07,12,09,58,7.20
2020,07,12,09,59,4.20
2020,07,12,10,00,6.00
2020,07,12,10,01,19.60
2020,07,12,10,02,11.70
2020,07,12,10,03,8.00
2020,07,12,10,04,8.80
2020,07,12,10,05,11.20
2020,07,12,10,06,11.70
2020,07,12,10,07,7.40
2020,07,12,10,08,14.20
2020,07,12,10,09,18.00
2020,07,12,10,10,18.20
2020,07,12,10,11,12.60
2020,07,12,10,12,4.70
2020,07,12,10,13,11.40
2020,07,12,10,14,7.60
2020,07,12,10,15,11.30
2020,07,12,10,16,11.40
2020,07,12,10,17,6.10
2020,07,12,10,18,7.10
2020,07,12,10,19,12.50
2020,07,12,10,20,11.10
2020,07,12,10,21,8.70
2020,07,12,10,22,14.20
2020,07,12,10,23,9.60
2020,07,12,10,24,6.00
2020,07,12,10,25,5.70
2020,07,12,10,26,13.40
2020,07,12,10,27,14.20
2020,07,12,10,28,8.30
2020,07,12,10,29,7.30
2020,07,12,10,30,6.50
2020,07,12,10,31,1.50
2020,07,12,10,32,5.80
2020,07,12,10,33,4.20
2020,07,12,10,34,9.70
2020,07,12,10,35,17.00
2020,07,12,10,36,21.80
2020,07,12,10,37,13.60
2020,07,12,10,38,10.30
2020,07,12,10,39,11.90
2020,07,12,10,40,5.60
2020,07,12,10,41,4.30
2020,07,12,10,42,15.40
2020,07,12,10,43,12.50
2020,07,12,10,44,5.20
2020,07,12,10,45,7.00
2020,07,12,10,46,8.60
2020,07,12,10,47,11.40
2020,07,12,10,48,11.00
2020,07,12,10,49,13.50
2020,07,12,10,50,7.90
2020,07,12,10,51,4.70
2020,07,12,10,52,5.50
2020,07,12,10,53,16.70
2020,07,12,10,54,10.10
2020,07,12,10,55,13.90
2020,07,12,10,56,13.00
2020,07,12,10,57,8.30
2020,07,12,10,58,15.10
2020,07,12,10,59,13.70
2020,07,12,11,00,17.90
2020,07,12,11,01,23.00
2020,07,12,11,02,11.70
2020,07,12,11,03,21.90
2020,07,12,11,04,12.50
2020,07,12,11,05,8.90
2020,07,12,11,06,10.30
2020,07,12,11,07,4.70
2020,07,12,11,08,7.50
2020,07,12,11,09,19.20
2020,07,12,11,10,16.20
2020,07,12,11,11,12.90
2020,07,12,11,12,13.40
2020,07,12,11,13,14.20
2020,07,12,11,14,16.50
2020,07,12,11,15,10.70
2020,07,12,11,16,11.40
2020,07,12,11,17,10.90
2020,07,12,11,18,9.80
2020,07,12,11,19,11.30
2020,07,12,11,20,13.00
2020,07,12,11,21,14.20
2020,07,12,11,22,15.70
2020,07,12,11,23,16.20
2020,07,12,11,24,10.70
2020,07,12,11,25,17.50
2020,07,12,11,26,21.10
2020,07,12,11,27,18.00
2020,07,12,11,28,17.50
2020,07,12,11,29,16.30
2020,07,12,11,30,17.30
2020,07,12,11,31,12.50
2020,07,12,11,32,6.40
2020,07,12,11,33,10.50
2020,07,12,11,34,7.20
2020,07,12,11,35,18.00
2020,07,12,11,36,18.30
2020,07,12,11,37,10.90
2020,07,12,11,38,4.70
2020,07,12,11,39,6.80
2020,07,12,11,40,7.50
2020,07,12,11,41,11.00
2020,07,12,11,42,13.00
2020,07,12,11,43,14.10
2020,07,12,11,44,10.50
2020,07,12,11,45,8.90
2020,07,12,11,46,8.80
2020,07,12,11,47,5.80
2020,07,12,11,48,7.60
2020,07,12,11,49,4.70
2020,07,12,11,50,10.50
2020,07,12,11,51,16.70
2020,07,12,11,52,11.90
2020,07,12,11,53,9.70
2020,07,12,11,54,8.60
2020,07,12,11,55,7.60
2020,07,12,11,56,5.30
2020,07,12,11,57,7.20
2020,07,12,11,58,15.10
2020,07,12,11,59,13.00
2020,07,12,12,00,9.30
2020,07,12,12,01,17.40
2020,07,12,12,02,14.40
2020,07,12,12,03,14.70
2020,07,12,12,04,13.50
2020,07,12,12,05,13.40
2020,07,12,12,06,14.20
2020,07,12,12,07,16.10
2020,07,12,12,08,22.30
2020,07,12,12,09,19.00
2020,07,12,12,10,15.20
2020,07,12,12,11,14.90
2020,07,12,12,12,21.80
2020,07,12,12,13,14.70
2020,07,12,12,14,17.30
2020,07,12,12,15,14.20
2020,07,12,12,16,16.10
2020,07,12,12,17,15.70
2020,07,12,12,18,12.30
2020,07,12,12,19,12.50
2020,07,12,12,20,17.00
2020,07,12,12,21,15.80
2020,07,12,12,22,13.00
2020,07,12,12,23,20.20
2020,07,12,12,24,22.40
2020,07,12,12,25,18.00
2020,07,12,12,26,16.60
2020,07,12,12,27,18.50
2020,07,12,12,28,9.70
2020,07,12,12,29,21.80
2020,07,12,12,30,22.00
2020,07,12,12,31,12.00
2020,07,12,12,32,10.50
2020,07,12,12,33,16.50
2020,07,12,12,34,14.70
2020,07,12,12,35,13.40
2020,07,12,12,36,14.10
2020,07,12,12,37,21.50
2020,07,12,12,38,18.80
2020,07,12,12,39,10.40
2020,07,12,12,40,16.80
2020,07,12,12,41,22.70
2020,07,12,12,42,20.10
2020,07,12,12,43,17.90
2020,07,12,12,44,14.70
2020,07,12,12,45,13.00
2020,07,12,12,46,11.70
2020,07,12,12,47,24.00
2020,07,12,12,48,22.90
2020,07,12,12,49,15.90
2020,07,12,12,50,15.20
2020,07,12,12,51,15.90
2020,07,12,12,52,18.50
2020,07,12,12,53,17.70
2020,07,12,12,54,18.00
2020,07,12,12,55,22.60
2020,07,12,12,56,17.70
2020,07,12,12,57,17.60
2020,07,12,12,58,14.60
2020,07,12,12,59,10.10
2020,07,12,13,00,15.60
2020,07,12,13,01,11.20
2020,07,12,13,02,14.60
2020,07,12,13,03,8.60
2020,07,12,13,04,23.30
2020,07,12,13,05,24.30
2020,07,12,13,06,25.10
2020,07,12,13,07,26.80
2020,07,12,13,08,16.20
2020,07,12,13,09,21.40
2020,07,12,13,10,22.60
2020,07,12,13,11,21.50
2020,07,12,13,12,19.10
2020,07,12,13,13,18.30
2020,07,12,13,14,18.60
2020,07,12,13,15,23.60
2020,07,12,13,16,24.90
2020,07,12,13,17,17.00
2020,07,12,13,18,19.30
2020,07,12,13,19,10.20
2020,07,12,13,20,10.50
2020,07,12,13,21,17.00
2020,07,12,13,22,20.20
2020,07,12,13,23,20.50
2020,07,12,13,24,19.50
2020,07,12,13,25,19.80
2020,07,12,13,26,25.70
2020,07,12,13,27,18.20
2020,07,12,13,28,24.20
2020,07,12,13,29,17.40
2020,07,12,13,30,14.40
2020,07,12,13,31,19.40
2020,07,12,13,32,22.90
2020,07,12,13,33,22.70
2020,07,12,13,34,24.30
2020,07,12,13,35,20.20
2020,07,12,13,36,15.40
2020,07,12,13,37,16.30
2020,07,12,13,38,11.00
2020,07,12,13,39,11.80
2020,07,12,13,40,29.10
2020,07,12,13,41,9.00
2020,07,12,13,42,12.80
2020,07,12,13,43,19.90
2020,07,12,13,44,23.80
2020,07,12,13,45,14.80
2020,07,12,13,46,11.80
2020,07,12,13,47,14.40
2020,07,12,13,48,5.60
2020,07,12,13,49,7.20
2020,07,12,13,50,13.60
2020,07,12,13,51,19.10
2020,07,12,13,52,15.50
2020,07,12,13,53,12.40
2020,07,12,13,54,8.70
2020,07,12,13,55,18.80
2020,07,12,13,56,20.30
2020,07,12,13,57,13.10
2020,07,12,13,58,9.90
2020,07,12,13,59,19.80
2020,07,12,14,00,15.30
2020,07,12,14,01,13.00
2020,07,12,14,02,14.80
2020,07,12,14,03,18.50
2020,07,12,14,04,13.00
2020,07,12,14,05,14.90
2020,07,12,14,06,18.80
2020,07,12,14,07,9.50
2020,07,12,14,08,13.20
2020,07,12,14,09,18.30
2020,07,12,14,10,15.30
2020,07,12,14,11,12.60
2020,07,12,14,12,23.60
2020,07,12,14,13,11.70
2020,07,12,14,14,7.30
2020,07,12,14,15,16.20
2020,07,12,14,16,15.30
2020,07,12,14,17,18.30
2020,07,12,14,18,18.20
2020,07,12,14,19,17.00
2020,07,12,14,20,20.30
2020,07,12,14,21,13.20
2020,07,12,14,22,11.80
2020,07,12,14,23,21.00
2020,07,12,14,24,15.50
2020,07,12,14,25,15.00
2020,07,12,14,26,17.70
2020,07,12,14,27,15.80
2020,07,12,14,28,22.40
2020,07,12,14,29,18.70
2020,07,12,14,30,15.50
2020,07,12,14,31,18.90
2020,07,12,14,32,13.60
2020,07,12,14,33,23.00
2020,07,12,14,34,20.10
2020,07,12,14,35,20.30
2020,07,12,14,36,22.30
2020,07,12,14,37,15.90
2020,07,12,14,38,17.00
2020,07,12,14,39,17.30
2020,07,12,14,40,24.10
2020,07,12,14,41,15.40
2020,07,12,14,42,29.30
2020,07,12,14,43,22.20
2020,07,12,14,44,15.00
2020,07,12,14,45,19.10
2020,07,12,14,46,14.40
2020,07,12,14,47,24.60
2020,07,12,14,48,25.70
2020,07,12,14,49,24.80
2020,07,12,14,50,17.20
2020,07,12,14,51,19.80
2020,07,12,14,52,15.90
2020,07,12,14,53,17.40
2020,07,12,14,54,24.10
2020,07,12,14,55,15.80
2020,07,12,14,56,18.30
2020,07,12,14,57,22.30
2020,07,12,14,58,22.60
2020,07,12,14,59,17.90
2020,07,12,15,00,15.50
2020,07,12,15,01,20.70
2020,07,12,15,02,15.40
2020,07,12,15,03,20.20
2020,07,12,15,04,17.80
2020,07,12,15,05,12.10
2020,07,12,15,06,15.40
2020,07,12,15,07,12.80
2020,07,12,15,08,14.60
2020,07,12,15,09,15.50
2020,07,12,15,10,13.70
2020,07,12,15,11,20.50
2020,07,12,15,12,16.00
2020,07,12,15,13,15.60
2020,07,12,15,14,18.00
2020,07,12,15,15,11.80
2020,07,12,15,16,17.50
2020,07,12,15,17,17.20
2020,07,12,15,18,14.10
2020,07,12,15,19,12.60
2020,07,12,15,20,15.60
2020,07,12,15,21,18.00
2020,07,12,15,22,17.30
2020,07,12,15,23,19.00
2020,07,12,15,24,10.80
2020,07,12,15,25,14.30
2020,07,12,15,26,14.70
2020,07,12,15,27,13.10
2020,07,12,15,28,11.90
2020,07,12,15,29,9.10
2020,07,12,15,30,9.30
2020,07,12,15,31,14.40
2020,07,12,15,32,11.20
2020,07,12,15,33,13.40
2020,07,12,15,34,17.70
2020,07,12,15,35,12.70
2020,07,12,15,36,17.60
2020,07,12,15,37,23.50
2020,07,12,15,38,17.10
2020,07,12,15,39,19.10
2020,07,12,15,40,18.60
2020,07,12,15,41,21.30
2020,07,12,15,42,12.70
2020,07,12,15,43,13.80
2020,07,12,15,44,8.20
2020,07,12,15,45,14.60
2020,07,12,15,46,15.70
2020,07,12,15,47,17.30
2020,07,12,15,48,15.70
2020,07,12,15,49,8.90
2020,07,12,15,50,9.60
2020,07,12,15,51,11.90
2020,07,12,15,52,15.40
2020,07,12,15,53,16.10
2020,07,12,15,54,19.20
2020,07,12,15,55,13.40
2020,07,12,15,56,23.00
2020,07,12,15,57,16.10
2020,07,12,15,58,12.70
2020,07,12,15,59,10.90
2020,07,12,16,00,13.80
2020,07,12,16,01,19.20
2020,07,12,16,02,11.20
2020,07,12,16,03,21.50
2020,07,12,16,04,16.10
2020,07,12,16,05,16.30
2020,07,12,16,06,19.70
2020,07,12,16,07,17.50
2020,07,12,16,08,17.40
2020,07,12,16,09,13.00
2020,07,12,16,10,4.30
2020,07,12,16,11,14.10
2020,07,12,16,12,10.30
2020,07,12,16,13,13.00
2020,07,12,16,14,15.30
2020,07,12,16,15,18.30
2020,07,12,16,16,17.00
2020,07,12,16,17,21.10
2020,07,12,16,18,17.00
2020,07,12,16,19,7.20
2020,07,12,16,20,10.30
2020,07,12,16,21,13.00
2020,07,12,16,22,8.60
2020,07,12,16,23,15.30
2020,07,12,16,24,22.70
2020,07,12,16,25,13.90
2020,07,12,16,26,18.00
2020,07,12,16,27,13.60
2020,07,12,16,28,23.40
2020,07,12,16,29,18.30
2020,07,12,16,30,9.50
2020,07,12,16,31,9.00
2020,07,12,16,32,9.20
2020,07,12,16,33,10.20
2020,07,12,16,34,11.60
2020,07,12,16,35,8.60
2020,07,12,16,36,10.30
2020,07,12,16,37,14.10
2020,07,12,16,38,12.70
2020,07,12,16,39,11.50
2020,07,12,16,40,11.30
2020,07,12,16,41,18.00
2020,07,12,16,42,16.10
2020,07,12,16,43,15.20
2020,07,12,16,44,11.90
2020,07,12,16,45,10.70
2020,07,12,16,46,17.80
2020,07,12,16,47,11.70
2020,07,12,16,48,6.20
2020,07,12,16,49,6.80
2020,07,12,16,50,12.90
2020,07,12,16,51,8.10
2020,07,12,16,52,14.80
2020,07,12,16,53,14.20
2020,07,12,16,54,11.30
2020,07,12,16,55,20.00
2020,07,12,16,56,20.80
2020,07,12,16,57,21.90
2020,07,12,16,58,20.90
2020,07,12,16,59,18.20
2020,07,12,17,00,19.70
2020,07,12,17,01,19.30
2020,07,12,17,02,14.60
2020,07,12,17,03,13.40
2020,07,12,17,04,17.40
2020,07,12,17,05,12.50
2020,07,12,17,06,21.90
2020,07,12,17,07,12.20
2020,07,12,17,08,16.50
2020,07,12,17,09,13.70
2020,07,12,17,10,9.30
2020,07,12,17,11,8.80
2020,07,12,17,12,17.60
2020,07,12,17,13,9.30
2020,07,12,17,14,7.60
2020,07,12,17,15,9.50
2020,07,12,17,16,6.40
2020,07,12,17,17,8.60
2020,07,12,17,18,17.40
2020,07,12,17,19,13.60
2020,07,12,17,20,7.80
2020,07,12,17,21,9.10
2020,07,12,17,22,6.50
2020,07,12,17,23,14.60
2020,07,12,17,24,12.50
2020,07,12,17,25,7.40
2020,07,12,17,26,11.60
2020,07,12,17,27,7.50
2020,07,12,17,28,14.80
2020,07,12,17,29,12.70
2020,07,12,17,30,9.60
2020,07,12,17,31,15.90
2020,07,12,17,32,13.00
2020,07,12,17,33,12.70
2020,07,12,17,34,5.50
2020,07,12,17,35,8.20
2020,07,12,17,36,12.90
2020,07,12,17,37,8.60
2020,07,12,17,38,9.40
2020,07,12,17,39,11.20
2020,07,12,17,40,11.60
2020,07,12,17,41,13.70
2020,07,12,17,42,17.20
2020,07,12,17,43,19.50
2020,07,12,17,44,11.80
2020,07,12,17,45,5.40